GW4073 Weather Reports


Display with metric or nautical units.
time (UTC)temp
F
wind
direction
speed
MPH
gust
MPH
rain 1hr
in
rain 24hr
in
rain mn
in
humidity
%
barometer
mb
20260905201129 83 269 2.0 3.0 0.00 0.00 0.00 30 1016.8
20260905200625 82 269 3.0 6.0 0.00 0.00 0.00 31 1017.0
20260905200120 83 219 4.0 11.0 0.00 0.00 0.00 29 1016.8
20260905195619 83 247 6.0 8.0 0.00 0.00 0.00 30 1016.9
20260905195114 81 276 3.0 8.0 0.00 0.00 0.00 31 1017.0
20260905194614 83 198 2.0 6.0 0.00 0.00 0.00 30 1016.9
20260905194114 83 282 2.0 7.0 0.00 0.00 0.00 29 1017.0
20260905193608 82 258 4.0 9.0 0.00 0.00 0.00 30 1017.1
20260905193103 81 269 6.0 14.0 0.00 0.00 0.00 30 1017.4
20260905192559 82 255 7.0 8.0 0.00 0.00 0.00 29 1017.2
20260905192055 82 249 3.0 7.0 0.00 0.00 0.00 27 1017.1
20260905191554 82 234 6.0 7.0 0.00 0.00 0.00 30 1017.2
20260905191048 82 241 4.0 14.0 0.00 0.00 0.00 30 1017.2
20260905190546 81 258 4.0 7.0 0.00 0.00 0.00 32 1017.5
20260905190045 81 228 2.0 10.0 0.00 0.00 0.00 31 1017.7
20260905185544 81 274 5.0 9.0 0.00 0.00 0.00 31 1017.6
20260905185044 80 330 2.0 5.0 0.00 0.00 0.00 32 1017.6
20260905184538 80 285 4.0 14.0 0.00 0.00 0.00 33 1017.6
20260905184037 79 274 5.0 9.0 0.00 0.00 0.00 31 1017.8
20260905183532 81 202 10.0 15.0 0.00 0.00 0.00 31 1017.9
20260905183027 80 257 2.0 8.0 0.00 0.00 0.00 32 1017.9
20260905182527 79 298 2.0 10.0 0.00 0.00 0.00 34 1017.9
20260905182026 80 261 4.0 7.0 0.00 0.00 0.00 31 1017.8
20260905181521 80 196 2.0 11.0 0.00 0.00 0.00 31 1017.9
20260905181021 81 303 3.0 4.0 0.00 0.00 0.00 33 1018.1
20260905180515 80 332 4.0 5.0 0.00 0.00 0.00 32 1017.9
20260905180011 80 285 2.0 4.0 0.00 0.00 0.00 34 1018.1
20260905175510 79 301 4.0 6.0 0.00 0.00 0.00 33 1017.9
20260905175006 79 271 2.0 5.0 0.00 0.00 0.00 33 1018.1
20260905174501 77 271 6.0 9.0 0.00 0.00 0.00 34 1017.8
20260905173957 79 208 6.0 6.0 0.00 0.00 0.00 32 1018.1
20260905173453 78 348 2.0 5.0 0.00 0.00 0.00 34 1018.1
20260905172948 78 317 4.0 6.0 0.00 0.00 0.00 33 1018.1
20260905172446 78 291 4.0 4.0 0.00 0.00 0.00 34 1018.1
20260905171942 78 123 2.0 7.0 0.00 0.00 0.00 32 1018.2
20260905171438 78 284 2.0 4.0 0.00 0.00 0.00 33 1018.2
20260905170934 78 180 2.0 4.0 0.00 0.00 0.00 31 1018.1
20260905170430 77 246 3.0 4.0 0.00 0.00 0.00 33 1018.1
20260905165930 77 312 3.0 3.0 0.00 0.00 0.00 35 1018.1
20260905165425 77 298 2.0 3.0 0.00 0.00 0.00 34 1017.9
20260905164920 77 285 3.0 3.0 0.00 0.00 0.00 32 1017.9
20260905164414 76 267 2.0 4.0 0.00 0.00 0.00 35 1018.2
20260905163909 75 298 3.0 4.0 0.00 0.00 0.00 33 1017.8
20260905163406 75 264 2.0 4.0 0.00 0.00 0.00 32 1017.6
20260905162902 78 291 2.0 2.0 0.00 0.00 0.00 32 1017.8
20260905162356 77 345 2.0 2.0 0.00 0.00 0.00 33 1017.7
20260905161851 76 284 1.0 1.0 0.00 0.00 0.00 32 1017.8
20260905161350 75 16 2.0 2.0 0.00 0.00 0.00 32 1017.7
20260905160849 72 318 1.0 3.0 0.00 0.00 0.00 29 1017.5
20260905160343 73 36 0.0 2.0 0.00 0.00 0.00 36 1017.8
20260905155837 70 29 2.0 4.0 0.00 0.00 0.00 37 1017.5
20260905155336 68 44 2.0 5.0 0.00 0.00 0.00 38 1017.7
20260905154831 67 54 4.0 5.0 0.00 0.00 0.00 40 1017.5
20260905154326 65 56 2.0 8.0 0.00 0.00 0.00 42 1017.4
20260905153821 64 71 3.0 6.0 0.00 0.00 0.00 43 1017.8
20260905153318 64 65 3.0 6.0 0.00 0.00 0.00 43 1017.6
20260905152812 63 36 5.0 5.0 0.00 0.00 0.00 45 1017.7
20260905152311 62 43 5.0 8.0 0.00 0.00 0.00 44 1017.5
20260905151806 61 111 5.0 10.0 0.00 0.00 0.00 46 1017.6
20260905151302 60 82 5.0 11.0 0.00 0.00 0.00 46 1017.6
20260905150801 60 99 5.0 8.0 0.00 0.00 0.00 47 1017.8
20260905150301 59 55 6.0 11.0 0.00 0.00 0.00 48 1017.5
20260905145758 58 85 2.0 8.0 0.00 0.00 0.00 50 1017.6
20260905145253 56 64 5.0 10.0 0.00 0.00 0.00 52 1017.6
20260905144752 56 54 5.0 9.0 0.00 0.00 0.00 52 1017.6
20260905144248 56 37 9.0 10.0 0.00 0.00 0.00 51 1017.6
20260905143747 56 51 5.0 9.0 0.00 0.00 0.00 52 1017.6
20260905143247 54 99 5.0 9.0 0.00 0.00 0.00 55 1017.5
20260905142745 54 79 2.0 7.0 0.00 0.00 0.00 55 1017.4
20260905142239 54 70 4.0 9.0 0.00 0.00 0.00 55 1017.4
20260905141736 53 57 4.0 6.0 0.00 0.00 0.00 55 1017.1
20260905141231 53 30 6.0 9.0 0.00 0.00 0.00 55 1017.1
20260905140726 52 49 5.0 7.0 0.00 0.00 0.00 56 1017.0
20260905140221 52 92 4.0 7.0 0.00 0.00 0.00 57 1017.2
20260905135720 52 110 2.0 5.0 0.00 0.00 0.00 57 1017.0
20260905135216 53 82 4.0 9.0 0.00 0.00 0.00 57 1017.1
20260905134715 53 119 7.0 10.0 0.00 0.00 0.00 55 1016.8
20260905134215 53 61 3.0 9.0 0.00 0.00 0.00 56 1016.8
20260905133705 53 54 4.0 5.0 0.00 0.00 0.00 56 1016.6
20260905133200 53 54 3.0 10.0 0.00 0.00 0.00 57 1016.5
20260905132659 53 35 6.0 9.0 0.00 0.00 0.00 57 1016.5
20260905132154 53 83 4.0 7.0 0.00 0.00 0.00 57 1016.4
20260905131649 53 69 2.0 11.0 0.00 0.00 0.00 56 1016.5
20260905131144 53 71 5.0 7.0 0.00 0.00 0.00 57 1016.3
20260905130638 53 93 4.0 11.0 0.00 0.00 0.00 57 1016.3
20260905130133 53 58 1.0 11.0 0.00 0.00 0.00 56 1016.4
20260905125627 53 47 6.0 10.0 0.00 0.00 0.00 56 1016.4
20260905125122 53 95 3.0 10.0 0.00 0.00 0.00 57 1016.2
20260905124613 54 114 2.0 10.0 0.00 0.00 0.00 56 1016.3
20260905124109 54 24 5.0 9.0 0.00 0.00 0.00 55 1016.2
20260905123604 54 41 4.0 9.0 0.00 0.00 0.00 56 1016.1
20260905123101 54 50 6.0 12.0 0.00 0.00 0.00 56 1016.1
20260905122600 54 75 3.0 10.0 0.00 0.00 0.00 56 1016.1
20260905122055 54 82 3.0 9.0 0.00 0.00 0.00 57 1016.1
20260905121550 53 54 3.0 9.0 0.00 0.00 0.00 58 1016.2
20260905121045 53 75 3.0 8.0 0.00 0.00 0.00 60 1015.9
20260905120544 54 114 4.0 9.0 0.00 0.00 0.00 58 1016.2
20260905120040 54 80 3.0 7.0 0.00 0.00 0.00 57 1016.2
20260905115538 53 56 4.0 8.0 0.00 0.00 0.00 60 1016.2
20260905115033 53 96 2.0 7.0 0.00 0.00 0.00 61 1016.3
20260905114533 53 53 2.0 4.0 0.00 0.00 0.00 61 1016.3
20260905114032 53 41 4.0 5.0 0.00 0.00 0.00 60 1015.9
20260905113527 53 105 4.0 4.0 0.00 0.00 0.00 61 1016.2
20260905113022 53 85 3.0 4.0 0.00 0.00 0.00 61 1016.2
20260905112517 53 64 1.0 6.0 0.00 0.00 0.00 61 1016.1
20260905112013 53 43 4.0 6.0 0.00 0.00 0.00 61 1016.2
20260905111507 53 35 4.0 8.0 0.00 0.00 0.00 61 1016.1
20260905111001 53 44 6.0 6.0 0.00 0.00 0.00 61 1015.9
20260905110501 52 112 3.0 4.0 0.00 0.00 0.00 62 1016.1
20260905110000 52 71 2.0 4.0 0.00 0.00 0.00 62 1016.2
20260905105455 52 47 5.0 6.0 0.00 0.00 0.00 62 1015.8
20260905104954 53 51 3.0 5.0 0.00 0.00 0.00 62 1016.2
20260905104450 53 112 3.0 7.0 0.00 0.00 0.00 61 1016.3
20260905103945 53 56 4.0 6.0 0.00 0.00 0.00 60 1016.1
20260905103440 53 96 4.0 6.0 0.00 0.00 0.00 60 1016.1
20260905102937 53 52 3.0 7.0 0.00 0.00 0.00 61 1016.1
20260905102432 53 81 2.0 7.0 0.00 0.00 0.00 62 1015.9
20260905101928 52 54 4.0 6.0 0.00 0.00 0.00 62 1015.8
20260905101426 52 81 1.0 3.0 0.00 0.00 0.00 63 1015.9
20260905100921 51 294 0.0 2.0 0.00 0.00 0.00 64 1015.9
20260905100417 53 315 0.0 3.0 0.00 0.00 0.00 62 1015.8
20260905095915 53 43 2.0 4.0 0.00 0.00 0.00 61 1015.8
20260905095405 53 309 1.0 3.0 0.00 0.00 0.00 64 1015.7
20260905094905 53 233 0.0 2.0 0.00 0.00 0.00 62 1015.9
20260905094401 53 214 0.0 1.0 0.00 0.00 0.00 60 1015.6
20260905093859 54 86 2.0 3.0 0.00 0.00 0.00 58 1015.8
20260905093355 54 31 2.0 3.0 0.00 0.00 0.00 58 1015.9
20260905092851 55 358 1.0 5.0 0.00 0.00 0.00 58 1015.5
20260905092351 54 240 0.0 2.0 0.00 0.00 0.00 59 1015.7
20260905091845 55 62 5.0 5.0 0.00 0.00 0.00 55 1015.6
20260905091340 55 81 3.0 8.0 0.00 0.00 0.00 55 1015.5
20260905090838 55 57 3.0 5.0 0.00 0.00 0.00 55 1015.6
20260905090335 55 317 0.0 4.0 0.00 0.00 0.00 56 1015.7
20260905085833 55 64 2.0 4.0 0.00 0.00 0.00 55 1015.6
20260905085328 56 54 4.0 6.0 0.00 0.00 0.00 54 1015.7
20260905084824 57 17 4.0 7.0 0.00 0.00 0.00 52 1015.7
20260905084323 57 327 0.0 4.0 0.00 0.00 0.00 53 1015.7
20260905083818 57 57 6.0 6.0 0.00 0.00 0.00 51 1015.5
20260905083314 57 94 3.0 8.0 0.00 0.00 0.00 51 1015.5
20260905082809 57 91 4.0 10.0 0.00 0.00 0.00 53 1015.6
20260905082307 57 49 4.0 7.0 0.00 0.00 0.00 52 1015.6
20260905081805 57 36 4.0 6.0 0.00 0.00 0.00 51 1015.6
20260905081301 57 102 1.0 7.0 0.00 0.00 0.00 52 1015.6
20260905080759 57 46 4.0 8.0 0.00 0.00 0.00 51 1015.6
20260905080254 58 104 5.0 7.0 0.00 0.00 0.00 51 1015.6
20260905075752 58 81 3.0 6.0 0.00 0.00 0.00 50 1015.9
20260905075247 58 67 6.0 9.0 0.00 0.00 0.00 50 1015.6
20260905074746 58 96 5.0 9.0 0.00 0.00 0.00 50 1015.9
20260905074242 58 52 7.0 10.0 0.00 0.00 0.00 50 1015.8
20260905073737 58 56 5.0 7.0 0.00 0.00 0.00 51 1015.8
20260905073233 59 64 4.0 7.0 0.00 0.00 0.00 50 1015.7
20260905072732 58 85 3.0 9.0 0.00 0.00 0.00 51 1015.8
20260905072228 58 57 3.0 8.0 0.00 0.00 0.00 52 1015.7
20260905071724 58 58 5.0 10.0 0.00 0.00 0.00 51 1015.7
20260905071220 59 70 2.0 7.0 0.00 0.00 0.00 50 1015.8
20260905070715 59 22 4.0 6.0 0.00 0.00 0.00 50 1015.7
20260905070211 58 102 3.0 6.0 0.00 0.00 0.00 51 1015.7
20260905065709 58 103 4.0 6.0 0.00 0.00 0.00 51 1015.5
20260905065204 59 47 4.0 6.0 0.00 0.00 0.00 52 1015.6
20260905064659 59 60 2.0 6.0 0.00 0.00 0.00 50 1015.7
20260905064155 59 55 6.0 7.0 0.00 0.00 0.00 50 1015.2
20260905063653 59 72 3.0 9.0 0.00 0.00 0.00 50 1015.5
20260905063150 59 70 5.0 7.0 0.00 0.00 0.00 51 1015.4
20260905062645 59 54 2.0 8.0 0.00 0.00 0.00 51 1015.5
20260905062144 60 43 7.0 8.0 0.00 0.00 0.00 50 1015.4
20260905061638 60 79 2.0 6.0 0.00 0.00 0.00 50 1015.6
20260905061132 60 22 4.0 5.0 0.00 0.00 0.00 50 1015.0
20260905060628 60 52 3.0 5.0 0.00 0.00 0.00 50 1015.0
20260905060125 60 70 3.0 6.0 0.00 0.00 0.00 51 1014.9
20260905055622 60 49 3.0 5.0 0.00 0.00 0.00 51 1015.2
20260905055118 60 13 3.0 5.0 0.00 0.00 0.00 51 1015.0
20260905054614 60 99 1.0 4.0 0.00 0.00 0.00 51 1015.1
20260905054108 60 53 2.0 4.0 0.00 0.00 0.00 52 1015.1
20260905053603 60 34 3.0 5.0 0.00 0.00 0.00 52 1015.0
20260905053058 61 48 3.0 5.0 0.00 0.00 0.00 51 1015.0
20260905052557 61 44 2.0 5.0 0.00 0.00 0.00 51 1014.8
20260905052052 61 26 3.0 7.0 0.00 0.00 0.00 51 1014.8
20260905051547 61 56 4.0 6.0 0.00 0.00 0.00 50 1014.8
20260905051038 62 54 3.0 6.0 0.00 0.00 0.00 49 1014.8
20260905050534 62 62 3.0 6.0 0.00 0.00 0.00 49 1014.7
20260905050031 62 44 6.0 6.0 0.00 0.00 0.00 48 1014.7
20260905045525 62 44 3.0 4.0 0.00 0.00 0.00 48 1014.7
20260905045020 62 47 3.0 4.0 0.00 0.00 0.00 49 1014.5
20260905044514 62 52 3.0 3.0 0.00 0.00 0.00 48 1014.7
20260905044009 63 41 4.0 4.0 0.00 0.00 0.00 47 1014.5
20260905043508 62 46 3.0 3.0 0.00 0.00 0.00 49 1014.7
20260905043003 62 48 2.0 3.0 0.00 0.00 0.00 50 1014.8
20260905042456 62 73 2.0 2.0 0.00 0.00 0.00 50 1014.5
20260905041952 63 67 2.0 2.0 0.00 0.00 0.00 50 1014.7
20260905041448 62 47 2.0 2.0 0.00 0.00 0.00 50 1014.4
20260905040942 63 54 2.0 2.0 0.00 0.00 0.00 50 1014.4
20260905040436 62 55 2.0 3.0 0.00 0.00 0.00 49 1014.3
20260905035936 62 72 1.0 2.0 0.00 0.00 0.00 49 1014.2
20260905035431 63 352 0.0 1.0 0.00 0.00 0.00 51 1014.3
20260905034928 64 22 0.0 1.0 0.00 0.00 0.00 49 1014.2
20260905034423 65 351 2.0 2.0 0.00 0.00 0.00 45 1014.1
20260905033922 65 357 2.0 2.0 0.00 0.00 0.00 45 1014.1
20260905033417 65 9 2.0 2.0 0.00 0.00 0.00 47 1014.1
20260905032917 66 55 1.0 2.0 0.00 0.00 0.00 46 1013.9
20260905032412 66 0 0.0 1.0 0.00 0.00 0.00 44 1013.8
20260905031907 67 343 1.0 2.0 0.00 0.00 0.00 43 1013.8
20260905031403 67 332 2.0 2.0 0.00 0.00 0.00 42 1013.6
20260905030858 68 339 1.0 2.0 0.00 0.00 0.00 41 1013.5
20260905030353 68 329 2.0 2.0 0.00 0.00 0.00 41 1013.4
20260905025852 68 319 2.0 2.0 0.00 0.00 0.00 43 1013.4
20260905025347 67 314 3.0 3.0 0.00 0.00 0.00 43 1013.6
20260905024844 67 318 2.0 2.0 0.00 0.00 0.00 45 1013.1
20260905024344 68 4 1.0 2.0 0.00 0.00 0.00 45 1013.1
20260905023839 68 1 2.0 2.0 0.00 0.00 0.00 43 1012.8
20260905023336 69 18 1.0 2.0 0.00 0.00 0.00 42 1013.0
20260905022834 70 22 1.0 2.0 0.00 0.00 0.00 40 1012.9
20260905022330 70 354 1.0 2.0 0.00 0.00 0.00 39 1013.0
20260905021830 70 325 1.0 2.0 0.00 0.00 0.00 39 1013.0
20260905021325 71 344 2.0 2.0 0.00 0.00 0.00 38 1012.9
20260905020820 71 289 1.0 2.0 0.00 0.00 0.00 40 1012.9
20260905020315 71 279 1.0 2.0 0.00 0.00 0.00 37 1013.0
20260905015813 72 295 1.0 2.0 0.00 0.00 0.00 37 1013.0
20260905015308 73 26 0.0 2.0 0.00 0.00 0.00 37 1012.8
20260905014807 74 333 0.0 3.0 0.00 0.00 0.00 35 1012.8
20260905014303 74 254 0.0 3.0 0.00 0.00 0.00 34 1013.0
20260905013758 74 255 1.0 4.0 0.00 0.00 0.00 33 1012.9
20260905013254 75 339 0.0 4.0 0.00 0.00 0.00 32 1012.9
20260905012749 76 290 1.0 4.0 0.00 0.00 0.00 31 1012.9
20260905012245 76 229 2.0 5.0 0.00 0.00 0.00 31 1012.8
20260905011742 77 244 2.0 4.0 0.00 0.00 0.00 30 1012.7
20260905011237 76 221 5.0 8.0 0.00 0.00 0.00 29 1012.7
20260905010732 77 256 2.0 3.0 0.00 0.00 0.00 31 1012.9
20260905010227 78 276 2.0 8.0 0.00 0.00 0.00 30 1012.9
20260905005724 78 267 2.0 7.0 0.00 0.00 0.00 28 1012.9
20260905005219 78 272 2.0 6.0 0.00 0.00 0.00 30 1012.9
20260905004713 79 260 3.0 11.0 0.00 0.00 0.00 28 1012.9
20260905004209 79 226 4.0 5.0 0.00 0.00 0.00 28 1012.7
20260905003709 79 204 3.0 6.0 0.00 0.00 0.00 27 1012.9
20260905003205 80 260 4.0 5.0 0.00 0.00 0.00 27 1012.8
20260905002700 81 265 5.0 7.0 0.00 0.00 0.00 26 1012.8
20260905002200 82 225 5.0 9.0 0.00 0.00 0.00 26 1012.9
20260905001655 82 192 6.0 6.0 0.00 0.00 0.00 25 1012.9
20260905001154 82 264 6.0 6.0 0.00 0.00 0.00 25 1013.1
20260905000650 82 271 3.0 5.0 0.00 0.00 0.00 25 1013.0
20260905000145 82 277 4.0 7.0 0.00 0.00 0.00 25 1012.9
20260904235645 82 212 3.0 10.0 0.00 0.00 0.00 24 1013.1
20260904235144 83 206 7.0 12.0 0.00 0.00 0.00 24 1013.2
20260904234640 83 288 3.0 10.0 0.00 0.00 0.00 25 1012.8
20260904234135 83 298 3.0 9.0 0.00 0.00 0.00 26 1012.9
20260904233631 83 195 5.0 6.0 0.00 0.00 0.00 25 1012.8
20260904233127 83 301 2.0 15.0 0.00 0.00 0.00 24 1012.8
20260904232623 83 255 4.0 8.0 0.00 0.00 0.00 25 1012.7
20260904232119 83 314 4.0 13.0 0.00 0.00 0.00 25 1012.7
20260904231615 84 200 5.0 6.0 0.00 0.00 0.00 25 1012.7
20260904231114 84 285 5.0 15.0 0.00 0.00 0.00 25 1012.7
20260904230609 84 239 4.0 7.0 0.00 0.00 0.00 25 1012.7
20260904230105 84 255 2.0 6.0 0.00 0.00 0.00 28 1012.4
20260904225602 84 311 10.0 15.0 0.00 0.00 0.00 26 1013.0
20260904225057 84 320 4.0 11.0 0.00 0.00 0.00 26 1013.0
20260904224552 84 200 4.0 11.0 0.00 0.00 0.00 26 1012.9
20260904224046 84 274 2.0 11.0 0.00 0.00 0.00 26 1012.9
20260904223545 86 177 4.0 6.0 0.00 0.00 0.00 26 1013.0
20260904223041 86 276 3.0 9.0 0.00 0.00 0.00 29 1013.0
20260904222537 86 275 3.0 6.0 0.00 0.00 0.00 27 1012.9
20260904222032 84 100 2.0 10.0 0.00 0.00 0.00 29 1013.0
20260904221526 85 245 4.0 6.0 0.00 0.00 0.00 28 1013.1
20260904221021 86 234 4.0 6.0 0.00 0.00 0.00 28 1012.8
20260904220520 85 161 2.0 11.0 0.00 0.00 0.00 27 1013.0
20260904220016 84 295 5.0 11.0 0.00 0.00 0.00 29 1013.2
20260904215511 84 280 4.0 15.0 0.00 0.00 0.00 30 1013.1
20260904215006 83 254 3.0 11.0 0.00 0.00 0.00 31 1013.2
20260904214502 83 314 2.0 4.0 0.00 0.00 0.00 32 1013.2
20260904213956 82 290 3.0 7.0 0.00 0.00 0.00 33 1013.4
20260904213455 84 225 3.0 9.0 0.00 0.00 0.00 31 1013.5
20260904212951 85 265 3.0 7.0 0.00 0.00 0.00 32 1013.1
20260904212451 83 229 5.0 11.0 0.00 0.00 0.00 31 1013.5
20260904211946 82 238 4.0 11.0 0.00 0.00 0.00 32 1013.5
20260904211446 80 236 7.0 10.0 0.00 0.00 0.00 33 1013.7
20260904210942 81 213 9.0 10.0 0.00 0.00 0.00 31 1013.5
20260904210440 82 262 2.0 6.0 0.00 0.00 0.00 33 1013.7
20260904205936 82 343 3.0 9.0 0.00 0.00 0.00 31 1013.8
20260904205432 83 265 2.0 15.0 0.00 0.00 0.00 30 1013.8
20260904204929 83 260 3.0 5.0 0.00 0.00 0.00 30 1013.9
20260904204424 83 180 3.0 8.0 0.00 0.00 0.00 28 1014.2
20260904203920 84 185 7.0 8.0 0.00 0.00 0.00 29 1013.8
20260904203417 84 237 5.0 11.0 0.00 0.00 0.00 30 1013.8
20260904202912 85 199 2.0 6.0 0.00 0.00 0.00 30 1014.2
20260904202408 84 288 4.0 7.0 0.00 0.00 0.00 33 1014.3
20260904201904 83 230 6.0 13.0 0.00 0.00 0.00 29 1014.3
20260904201359 82 168 9.0 11.0 0.00 0.00 0.00 32 1014.4